When you browse on this site, cookies collect data to enhance your experience and personalize the content and advertising you see.
Visit our Privacy Policy to learn more. By continuing to use the site, you agree to this use of cookies and data.
  • In Hungary
  • List of Countries
  • For 7 days
  • Water Temperature
  • Satellite Maps
  • Weather Map
  • News
  • Weather Widgets
  • user-avatar
    Login

    Hourly Weather Zmiev

    Today, 22 January, Tuesday

    Time Temperature Precipitation Wind Pressure Humidity
    00:00 -13°C° 0 mm 2 mps 748 mmHg 94%
    01:00 -14°C° 0 mm 2 mps 748 mmHg 94%
    02:00 -15°C° 0 mm 2 mps 748 mmHg 96%
    03:00 -15°C° 0 mm 2 mps 748 mmHg 97%
    04:00 -15°C° 0 mm 2 mps 748 mmHg 97%
    05:00 -16°C° 0 mm 2 mps 748 mmHg 97%
    06:00 -16°C° 0 mm 2 mps 749 mmHg 96%
    07:00 -16°C° 0 mm 2 mps 749 mmHg 96%
    08:00 -16°C° 0 mm 2 mps 749 mmHg 95%
    09:00 -14°C° 0 mm 2 mps 749 mmHg 94%
    10:00 -11°C° 0 mm 1 mps 750 mmHg 94%
    11:00 -10°C° 0 mm 1 mps 750 mmHg 93%
    12:00 -9°C° 0 mm 1 mps 750 mmHg 93%
    13:00 -9°C° 0 mm 1 mps 750 mmHg 93%
    14:00 -8°C° 0 mm 1 mps 750 mmHg 93%
    15:00 -10°C° 0 mm 1 mps 750 mmHg 95%
    16:00 -12°C° 0 mm 0 mps 750 mmHg 97%
    17:00 -13°C° 0 mm 0 mps 750 mmHg 98%
    18:00 -13°C° 0 mm 0 mps 750 mmHg 98%
    19:00 -14°C° 0 mm 0 mps 749 mmHg 98%
    20:00 -14°C° 0 mm 1 mps 749 mmHg 98%
    21:00 -13°C° 0 mm 1 mps 750 mmHg 98%
    22:00 -13°C° 0 mm 1 mps 750 mmHg 97%
    23:00 -15°C° 0 mm 2 mps 750 mmHg 97%

    Tomorrow, 23 January, Wednesday

    Time Temperature Precipitation Wind Pressure Humidity
    00:00 -15°C° 0 mm 2 mps 750 mmHg 97%
    01:00 -14°C° 0 mm 2 mps 749 mmHg 97%
    02:00 -15°C° 0 mm 3 mps 749 mmHg 97%
    03:00 -14°C° 0 mm 3 mps 749 mmHg 97%
    04:00 -14°C° 0 mm 3 mps 749 mmHg 97%
    05:00 -15°C° 0 mm 4 mps 749 mmHg 96%
    06:00 -15°C° 0 mm 4 mps 749 mmHg 96%
    07:00 -15°C° 0 mm 4 mps 749 mmHg 95%
    08:00 -15°C° 0 mm 4 mps 748 mmHg 94%
    09:00 -14°C° 0 mm 5 mps 748 mmHg 93%
    10:00 -13°C° 0 mm 5 mps 748 mmHg 91%
    11:00 -14°C° 0 mm 6 mps 748 mmHg 89%
    12:00 -12°C° 0.1 mm 6 mps 747 mmHg 90%
    13:00 -12°C° 0.1 mm 6 mps 746 mmHg 90%
    14:00 -13°C° 0.1 mm 7 mps 746 mmHg 90%
    15:00 -13°C° 0.4 mm 7 mps 745 mmHg 91%
    16:00 -13°C° 0.4 mm 7 mps 745 mmHg 92%
    17:00 -13°C° 0.4 mm 8 mps 744 mmHg 93%
    18:00 -12°C° 0.8 mm 8 mps 744 mmHg 94%
    19:00 -12°C° 0.8 mm 8 mps 743 mmHg 94%
    20:00 -11°C° 0.8 mm 8 mps 742 mmHg 95%
    21:00 -10°C° 2 mm 8 mps 742 mmHg 95%
    22:00 -8°C° 2 mm 8 mps 741 mmHg 96%
    23:00 -7°C° 2 mm 8 mps 740 mmHg 96%

    Day after tomorrow, 24 January, Thursday

    Time Temperature Precipitation Wind Pressure Humidity
    00:00 -6°C° 1 mm 7 mps 740 mmHg 96%
    01:00 -4°C° 1 mm 7 mps 740 mmHg 95%
    02:00 -3°C° 1 mm 6 mps 739 mmHg 95%
    03:00 -2°C° 0.2 mm 6 mps 739 mmHg 96%
    04:00 -1°C° 0.2 mm 5 mps 739 mmHg 98%
    05:00 -1°C° 0.2 mm 5 mps 739 mmHg 99%
    06:00 -1°C° 0.1 mm 4 mps 739 mmHg 99%
    07:00 -1°C° 0.1 mm 4 mps 739 mmHg 99%
    08:00 -1°C° 0.1 mm 4 mps 739 mmHg 99%
    09:00 0°C° 0.1 mm 3 mps 740 mmHg 99%
    10:00 0°C° 0.1 mm 3 mps 740 mmHg 99%
    11:00 0°C° 0.1 mm 3 mps 740 mmHg 99%
    12:00 0°C° 0.4 mm 3 mps 740 mmHg 99%
    13:00 +1°C° 0.4 mm 2 mps 740 mmHg 100%
    14:00 +2°C° 0.4 mm 2 mps 739 mmHg 100%
    15:00 +1°C° 0.8 mm 2 mps 740 mmHg 99%
    16:00 0°C° 0.8 mm 3 mps 740 mmHg 99%
    17:00 0°C° 0.8 mm 3 mps 740 mmHg 99%
    18:00 0°C° 0.2 mm 3 mps 740 mmHg 99%
    19:00 +1°C° 0.2 mm 2 mps 740 mmHg 99%
    20:00 +1°C° 0.2 mm 2 mps 740 mmHg 99%
    21:00 +1°C° 0.7 mm 2 mps 740 mmHg 99%
    22:00 +1°C° 0.7 mm 2 mps 740 mmHg 99%
    23:00 +1°C° 0.7 mm 2 mps 740 mmHg 99%

    25 January, Friday

    Time Temperature Precipitation Wind Pressure Humidity
    00:00 -1°C° 0.1 mm 2 mps 740 mmHg 97%
    01:00 -1°C° 0.1 mm 3 mps 740 mmHg 95%
    02:00 -1°C° 0.1 mm 3 mps 740 mmHg 93%
    03:00 -1°C° 0 mm 3 mps 740 mmHg 93%
    04:00 -1°C° 0 mm 3 mps 740 mmHg 92%
    05:00 -1°C° 0 mm 3 mps 740 mmHg 92%
    06:00 -2°C° 0 mm 3 mps 740 mmHg 91%
    07:00 -4°C° 0 mm 3 mps 741 mmHg 91%
    08:00 -5°C° 0 mm 4 mps 741 mmHg 91%
    09:00 -4°C° 0 mm 4 mps 741 mmHg 92%
    10:00 -3°C° 0 mm 4 mps 741 mmHg 92%
    11:00 -2°C° 0 mm 4 mps 741 mmHg 93%
    12:00 -2°C° 0 mm 4 mps 741 mmHg 95%
    13:00 -2°C° 0 mm 5 mps 741 mmHg 96%
    14:00 -2°C° 0 mm 5 mps 741 mmHg 98%
    15:00 -2°C° 0 mm 5 mps 741 mmHg 98%
    16:00 -2°C° 0 mm 5 mps 742 mmHg 98%
    17:00 -2°C° 0 mm 5 mps 742 mmHg 98%
    18:00 -2°C° 0.1 mm 4 mps 742 mmHg 98%
    19:00 -1°C° 0.1 mm 4 mps 742 mmHg 99%
    20:00 -1°C° 0.1 mm 4 mps 742 mmHg 99%
    21:00 -1°C° 0.1 mm 4 mps 742 mmHg 99%
    22:00 -1°C° 0.1 mm 4 mps 742 mmHg 99%
    23:00 -1°C° 0.1 mm 4 mps 742 mmHg 99%

    26 January, Saturday

    Time Temperature Precipitation Wind Pressure Humidity
    00:00 -1°C° 0.1 mm 4 mps 742 mmHg 99%
    01:00 -1°C° 0.1 mm 4 mps 742 mmHg 99%
    02:00 -1°C° 0.1 mm 4 mps 742 mmHg 99%
    03:00 0°C° 0.1 mm 3 mps 742 mmHg 99%
    04:00 -1°C° 0.1 mm 3 mps 742 mmHg 99%
    05:00 -1°C° 0.1 mm 3 mps 742 mmHg 99%
    06:00 -1°C° 0.1 mm 3 mps 742 mmHg 99%
    07:00 -2°C° 0.1 mm 4 mps 742 mmHg 99%
    08:00 -2°C° 0.1 mm 4 mps 742 mmHg 99%
    09:00 -2°C° 0.1 mm 4 mps 742 mmHg 99%
    10:00 -2°C° 0.1 mm 4 mps 742 mmHg 99%
    11:00 -2°C° 0.1 mm 4 mps 742 mmHg 99%
    12:00 -2°C° 0.1 mm 4 mps 742 mmHg 99%
    13:00 -2°C° 0.1 mm 4 mps 742 mmHg 99%
    14:00 -2°C° 0.1 mm 4 mps 741 mmHg 99%
    15:00 -2°C° 0.1 mm 4 mps 741 mmHg 98%
    16:00 -2°C° 0.1 mm 4 mps 741 mmHg 97%
    17:00 -2°C° 0.1 mm 4 mps 741 mmHg 96%
    18:00 -4°C° 0.1 mm 5 mps 742 mmHg 96%
    19:00 -4°C° 0.1 mm 5 mps 742 mmHg 96%
    20:00 -4°C° 0.1 mm 5 mps 742 mmHg 95%
    21:00 -4°C° 0.1 mm 5 mps 742 mmHg 95%
    22:00 -5°C° 0.1 mm 5 mps 742 mmHg 95%
    23:00 -5°C° 0.1 mm 5 mps 742 mmHg 95%

    27 January, Sunday

    Time Temperature Precipitation Wind Pressure Humidity
    00:00 -6°C° 0.2 mm 5 mps 742 mmHg 95%
    01:00 -6°C° 0.2 mm 6 mps 742 mmHg 95%
    02:00 -8°C° 0.2 mm 6 mps 742 mmHg 95%
    03:00 -9°C° 0.1 mm 6 mps 742 mmHg 94%
    04:00 -9°C° 0.1 mm 6 mps 742 mmHg 94%
    05:00 -11°C° 0.1 mm 7 mps 742 mmHg 94%
    06:00 -12°C° 0.1 mm 7 mps 742 mmHg 94%
    07:00 -12°C° 0.1 mm 7 mps 742 mmHg 93%
    08:00 -12°C° 0.1 mm 7 mps 743 mmHg 93%
    09:00 -13°C° 0 mm 7 mps 743 mmHg 93%
    10:00 -13°C° 0 mm 7 mps 743 mmHg 93%
    11:00 -13°C° 0 mm 7 mps 743 mmHg 93%
    12:00 -13°C° 0 mm 7 mps 744 mmHg 92%
    13:00 -13°C° 0 mm 7 mps 744 mmHg 92%
    14:00 -13°C° 0 mm 7 mps 744 mmHg 92%
    15:00 -15°C° 0 mm 7 mps 744 mmHg 92%
    16:00 -17°C° 0 mm 7 mps 745 mmHg 91%
    17:00 -18°C° 0 mm 7 mps 745 mmHg 91%
    18:00 -19°C° 0 mm 7 mps 746 mmHg 91%
    19:00 -20°C° 0 mm 7 mps 746 mmHg 91%
    20:00 -21°C° 0 mm 7 mps 747 mmHg 91%
    21:00 -23°C° 0 mm 7 mps 747 mmHg 89%
    22:00 -24°C° 0 mm 7 mps 747 mmHg 88%
    23:00 -24°C° 0 mm 6 mps 748 mmHg 87%
    Show more